Погода в Новольвовске

Россия / Тульская область     53°55′22″N   38°47′13″E
темп.,
°C
ветер,
м/с
пор.,
м/с
влажн.,
%
обл.,
%
осадки,
мм/ч
давл.,
гПа
погр.,
м
8 мая, сб
сб800:00+8ююв486916 0.0 1014136
03:00+8ююв61567100 0.0 1013382
06:00+9ю71676100 0.0 1011670
09:00+8ююв91891100 3.6 10091002
12:00+8ююв91890100 4.2 1007921
15:00+10ю81595100 10.1 1005962
18:00+10ююз61193100 4.4 1004576
21:00+10юз61193100 4.4 1004541
9 мая, вс
вс900:00+8ююз4896100 0.0 1004430
03:00+7ссз4895100 0.4 1005531
06:00+4зсз71397100 5.3 1010846
09:00+6сз8118187 7.8 10131013
12:00+7сз81073100 0.1 10161296
15:00+9сз71067100 0.1 10171545
18:00+10ссз486457 0.1 10201502
21:00+6сз411775 0.1 1023207
10 мая, пн
пн1000:00+4ссз410803 0.0 1025180
03:00+3ссз410810 0.0 1027182
06:00+4с39803 0.0 1029198
09:00+10с57615 0.0 1030589
12:00+12ссв67485 0.0 10291383
15:00+14ссв674846 0.0 10291474
18:00+13ссв585916 0.0 1029590
21:00+8ссв48775 0.0 1030123
11 мая, вт
вт1100:00+6св37740 0.0 1030114
03:00+5св49770 0.0 1031142
06:00+6св411780 0.0 1031271
09:00+11св712620 0.0 1030696
12:00+15всв79540 0.0 1030968
15:00+16всв68530 0.0 10281004
18:00+15всв59655 0.0 1028676
21:00+11всв4107915 0.0 1028201
12 мая, ср
ср1200:00+9всв4128343 0.0 1028245
03:00+8св498878 0.0 1027172
06:00+9всв5128577 0.0 1026285
09:00+13в71370100 0.0 1026580
12:00+14в51175100 0.0 1025540
15:00+18в8126838 0.0 1024922
18:00+17в6137698 0.0 1024767
21:00+14всв4128886 0.0 1023356